Hlavní strana
METAR-TAF:

METAR-TAF

Letiště :

Statesville Regional Airport

Statesville, Severní Karolína, Spojené státy americké

zeměpisná šířka: 35-45-55N, zeměpisná délka: 080-57-24W, výška: 294 m

Aktuální stav počasí

Zpráva byla vytvořena před 21 minutami, v 01:35 UTC
Jihojihozápadní vítr 4 kt
Teplota 4°C
Vlhkost vzduchu 93%
Tlak 1019 hPa
Viditelnost: 11.3 km
Zataženo ve výšce 1600 ft

METAR: KSVH 190135Z AUTO 21004KT 7SM OVC016 04/03 A3008 RMK AO2 T00360032

Čas: 20:56 (01:56 UTC)


TAF: chybějící

Stav a předpovědi počasí z více než 4 000 letišť (zprávy METAR a TAF).

Červené a žluté tečky na mapě představují dostupné meteorologické stanice.

Když kurzor umístíte na tečku, zobrazí se název stanice.

Pak kliknutím zobrazíte stav a předpověď počasí.

Chcete-li změnit mapu, kliknutím na zelené tlačítko se znaménkem +mapu přiblížíte, kliknutím na zelené tlačítko se znaménkem – mapu oddálíte a kliknutím na zelené šipky přejdete na sousední mapy.


METAR-TAF: